Temperature
19 19 18 18 18 17 17 17 17 17 17 16 16 16 16 16 16 16 16 16 16 16 16 15 15 15 15 15 15 15 15 15 15 15 15 14 14 14 14 14 14 14 14
19 19 18 18 18 17 17 17 17 17 17 16 16 16 16 16 16 16 16 16 16 15 15 15 15 15 15 15 15 15 15 15 15 14 14 14 14 14 14 14 13 13 13
19 19 18 18 18 18 17 17 17 17 16 16 16 16 16 16 15 15 15 15 15 15 15 15 15 15 15 15 15 14 14 14 14 14 14 13 13 13 13 13 13 13 12
19 19 18 18 18 17 17 17 17 16 16 16 16 16 16 15 15 15 15 15 15 15 14 14 14 14 14 14 14 14 14 14 13 13 13 13 13 12 12 12 12 12 12
19 19 18 18 18 17 17 17 16 16 16 16 16 16 15 15 15 15 15 14 14 14 14 14 14 14 14 13 13 13 13 13 13 13 13 12 12 12 12 12 12 11 11
19 18 18 18 17 17 17 16 16 16 16 15 15 15 15 15 14 14 14 14 14 14 14 13 13 13 13 13 13 13 13 12 12 12 12 12 11 11 11 11 11 11 11
19 18 18 18 17 17 16 16 16 16 15 15 15 15 14 14 14 14 14 14 13 13 13 13 13 12 12 12 12 12 12 12 12 11 11 11 11 11 11 10 10 10 10
18 18 18 17 17 16 16 16 15 15 15 15 14 14 14 13 13 13 13 13 13 12 12 12 12 12 12 12 12 12 12 11 11 11 11 10 10 10 10 10 10 9 9
18 18 17 17 16 16 16 15 15 15 14 14 14 13 13 13 13 13 13 13 12 12 12 11 11 11 11 11 11 11 11 10 10 10 10 10 10 9 9 9 9 9 9
18 17 17 16 16 16 15 15 15 14 14 14 13 13 13 12 12 12 12 12 12 11 11 11 11 11 10 10 10 10 10 10 10 9 9 9 9 9 9 9 9 9 8
17 17 16 16 16 15 15 15 14 14 13 13 13 12 12 12 12 12 11 11 11 11 11 10 10 10 10 10 10 9 9 9 9 9 9 9 8 8 8 8 8 8 8
17 16 16 15 15 15 14 14 14 13 13 12 12 12 11 11 11 11 11 11 11 10 10 10 9 9 9 9 9 9 9 8 8 8 8 8 8 8 8 8 8 8 7
16 16 15 15 14 14 14 13 13 13 12 12 12 11 11 11 10 10 10 10 10 10 9 9 9 9 9 9 8 8 8 8 8 8 8 8 7 7 7 7 7 7 7
16 15 15 15 14 14 13 13 12 12 12 12 11 11 11 10 10 10 9 9 9 9 9 9 8 8 8 8 8 8 8 8 8 8 7 7 7 7 7 7 7 7 7
15 15 14 14 14 13 13 12 12 12 11 11 11 11 10 10 9 9 9 9 9 9 8 8 8 8 8 8 8 8 7 7 7 7 7 7 7 7 7 7 6 6 6
15 14 14 13 13 12 12 12 11 11 11 10 10 10 10 9 9 9 9 8 8 8 8 8 8 8 7 7 7 7 7 7 7 7 7 7 6 6 6 6 6 6 6
14 14 13 13 13 12 12 12 11 11 10 10 10 9 9 9 9 8 8 8 8 8 8 8 8 7 7 7 7 7 7 7 7 6 6 6 6 6 6 6 6 6 6
13 13 13 12 12 12 11 11 11 11 10 10 9 9 9 8 8 8 8 8 8 8 8 7 7 7 7 7 7 7 7 6 6 6 6 6 6 6 6 6 6 6 6
13 12 12 12 11 11 11 11 10 10 10 9 9 9 8 8 8 8 8 8 8 8 7 7 7 7 7 7 6 6 6 6 6 6 6 6 6 6 6 6 6 5 5
12 12 12 11 11 11 10 10 10 10 9 9 9 9 8 8 8 8 8 8 7 7 7 7 7 7 7 7 6 6 6 6 6 6 6 6 6 6 5 5 5 5 5
12 12 11 11 11 11 10 10 10 9 9 9 9 9 8 8 8 8 8 7 7 7 7 7 7 7 7 6 6 6 6 6 6 6 6 6 6 5 5 5 5 5 5
12 11 11 11 11 10 10 10 9 9 9 9 9 8 8 8 8 8 8 7 7 7 7 7 7 7 6 6 6 6 6 6 6 6 6 6 5 5 5 5 5 5 5
11 11 11 10 10 10 9 9 9 9 9 9 8 8 8 8 8 8 7 7 7 7 7 7 7 7 6 6 6 6 6 6 6 6 6 6 5 5 5 5 5 5 5
11 11 10 10 10 10 9 9 9 9 9 9 8 8 8 8 8 8 7 7 7 7 7 7 6 6 6 6 6 6 6 6 6 6 6 5 5 5 5 5 5 5 5
10 10 10 10 10 10 9 9 9 9 9 9 9 8 8 8 8 8 7 7 7 7 7 7 6 6 6 6 6 6 6 6 6 6 6 5 5 5 5 5 5 5 5
10 10 10 10 10 10 9 9 9 9 9 9 9 8 8 8 8 8 7 7 7 7 7 7 7 6 6 6 6 6 6 6 6 6 6 5 5 5 5 5 5 5 5
Wind_Speed
3 3 2 2 2 2 2 1 1 1 1 2 1 2 2 2 1 1 1 0 1 1 1 1 1 1 1 1 1 1 1 2 3 2 1 1 2 3 4 5 5 6 7
4 4 3 3 3 2 2 1 2 2 2 2 2 3 2 2 2 2 1 1 1 0 0 1 1 0 0 0 1 1 1 2 2 2 1 1 2 2 3 3 4 5 7
5 5 4 3 3 2 2 2 3 3 3 3 3 3 2 2 2 2 1 2 2 1 1 1 1 2 2 1 1 2 1 1 2 2 1 1 2 2 3 3 4 5 6
6 5 4 3 3 3 3 3 3 3 4 4 4 4 3 3 3 2 3 3 3 3 3 3 3 3 3 2 2 2 2 2 2 2 1 1 2 2 2 2 3 3 4
6 5 4 3 3 4 4 4 4 4 4 4 4 5 5 4 4 4 4 4 5 5 5 5 6 7 7 5 3 3 3 3 3 2 2 2 2 1 1 1 1 1 3
6 5 4 4 4 4 4 4 4 5 4 5 5 5 6 5 7 8 6 5 5 6 6 6 7 8 10 11 11 10 7 4 3 2 2 2 1 1 1 0 0 1 1
6 5 5 5 5 4 4 5 5 4 5 6 6 6 6 7 9 9 9 6 6 6 6 6 6 7 7 7 10 12 11 11 7 4 3 2 1 1 0 1 1 2 1
6 5 5 6 6 5 5 6 5 5 5 5 6 6 6 7 9 9 9 8 8 7 6 6 6 5 6 6 7 8 8 7 6 5 4 2 2 1 1 1 2 3 3
6 5 5 6 7 6 6 5 5 5 6 5 5 6 6 6 8 8 8 6 7 7 7 7 6 5 6 7 7 7 6 6 9 10 9 8 9 8 5 3 3 3 2
4 5 5 6 7 7 6 6 5 6 6 6 7 6 6 6 8 8 7 5 6 5 5 6 8 7 7 7 5 5 6 4 5 6 8 9 9 9 8 4 2 2 2
6 6 6 6 7 7 7 5 6 7 7 7 7 6 6 6 7 8 7 5 5 5 5 5 5 9 9 9 7 5 4 4 5 5 5 6 6 6 6 6 4 2 2
7 7 6 6 6 7 7 6 6 7 7 6 6 5 5 5 7 7 9 7 6 5 4 3 5 8 9 9 7 7 7 6 5 5 5 5 5 5 5 6 7 7 5
7 7 7 6 6 6 7 7 5 5 5 4 4 4 3 4 5 8 8 8 8 5 4 6 8 10 9 8 10 10 7 5 5 5 5 4 3 4 4 5 7 8 9
8 7 7 7 7 6 5 5 5 4 4 4 4 3 3 3 3 3 4 5 7 6 5 7 10 11 9 8 7 7 6 5 4 4 3 3 3 4 5 4 4 4 5
8 7 6 6 7 6 5 4 4 3 3 4 3 3 3 2 1 2 3 3 3 4 5 5 5 5 6 6 5 5 5 5 5 4 4 4 4 4 4 4 3 4 4
8 7 6 5 6 6 6 6 8 6 7 6 5 4 2 2 4 6 6 6 6 7 6 5 4 4 4 4 4 4 4 4 4 3 4 4 3 4 4 4 3 3 3
7 7 6 6 6 6 6 6 5 5 8 7 6 7 6 6 7 7 7 8 7 7 5 4 3 3 3 3 3 3 3 3 3 3 4 3 3 3 3 3 3 3 2
7 7 7 5 6 5 5 5 5 5 4 3 4 5 6 7 7 7 8 7 5 4 3 3 2 2 2 2 2 2 2 2 3 3 3 3 2 2 2 2 2 2 2
7 6 5 5 5 5 5 5 5 5 4 3 3 3 3 5 6 6 5 3 3 2 2 2 1 1 1 1 1 1 1 2 2 2 2 2 2 2 2 2 1 2 1
6 9 8 6 6 5 5 5 5 4 4 3 3 2 2 2 2 2 2 2 2 2 2 1 1 1 1 1 1 1 1 1 1 1 1 1 1 1 1 1 1 2 2
5 7 9 7 6 6 5 5 5 4 4 3 2 2 4 3 2 2 2 2 2 2 2 2 1 1 1 1 1 1 0 0 0 0 0 1 1 1 1 2 2 2 2
6 6 5 6 5 5 5 5 5 5 4 4 2 2 4 3 2 2 2 2 3 3 3 3 2 2 2 2 2 1 1 2 2 1 1 1 1 1 2 2 2 2 3
6 6 5 5 5 6 6 5 5 5 5 4 4 3 3 3 3 3 3 3 2 2 3 3 3 2 3 3 4 3 3 3 3 3 2 2 2 2 2 3 3 4 4
6 6 6 6 5 5 5 5 5 5 5 4 4 4 4 4 4 4 3 3 3 3 3 3 4 4 5 5 4 5 6 6 5 5 4 4 4 3 3 4 4 5 5
6 6 6 6 6 5 5 5 5 5 5 5 5 4 4 4 4 4 4 4 4 4 4 5 5 6 7 7 6 6 6 7 7 6 5 5 5 5 5 5 5 5 5
5 6 5 5 5 5 5 5 5 5 5 5 5 4 4 4 4 4 4 4 4 4 5 5 6 7 7 8 8 8 8 8 7 7 6 5 5 5 5 5 6 6 6
Wind_Direction
149 141 121 113 107 98 89 82 83 64 76 81 77 66 61 51 56 80 67 122 167 221 230 207 248 259 233 243 211 191 197 193 221 274 311 358 19 27 31 40 45 55 51
147 134 125 112 104 98 85 78 82 83 80 84 83 73 64 57 59 76 59 50 91 111 190 116 298 303 360 10 131 142 171 186 190 241 315 6 17 26 34 39 50 54 57
139 133 128 123 118 109 90 85 79 76 72 71 77 73 60 51 52 62 82 77 73 60 53 70 44 70 59 51 82 98 115 133 160 186 264 21 33 26 30 40 51 51 57
140 139 139 140 136 122 101 87 81 78 71 66 65 62 55 54 53 61 76 82 73 62 59 63 66 74 73 62 66 68 86 93 100 115 94 45 37 21 38 40 41 37 40
145 147 151 138 122 109 98 90 83 78 73 72 69 58 52 54 53 65 71 76 75 71 61 59 67 73 73 72 75 72 85 93 94 93 83 61 38 28 10 360 43 43 48
146 149 138 125 114 107 101 90 84 80 78 76 70 64 57 58 58 62 71 73 75 76 69 61 62 61 69 71 72 71 74 85 93 88 79 76 22 337 326 3 98 58 49
147 143 135 128 120 114 108 94 84 78 79 75 69 68 66 58 58 63 67 77 78 72 68 65 64 58 61 69 67 66 62 61 70 97 93 68 19 327 54 79 82 73 69
141 137 132 128 120 107 100 94 85 78 79 75 70 72 72 61 61 65 70 74 76 69 62 64 70 59 61 74 76 70 61 51 56 69 78 55 46 53 95 115 118 98 79
139 138 135 129 123 115 107 102 99 94 83 75 71 67 67 55 57 67 77 81 76 65 58 58 66 64 58 70 81 79 65 48 57 67 69 63 60 61 77 92 88 95 72
133 131 126 120 121 120 116 107 99 99 94 86 74 64 65 60 55 66 75 88 84 73 59 53 58 63 59 62 82 86 75 46 44 48 49 49 52 54 58 66 92 104 88
124 119 116 118 119 119 112 107 108 103 95 86 79 64 57 55 56 61 69 85 95 88 74 59 53 61 66 66 72 78 85 74 58 56 52 45 43 43 44 47 56 81 86
125 123 118 114 117 119 115 110 110 109 101 93 85 69 52 45 52 60 67 77 90 92 83 70 64 68 68 66 69 68 69 67 65 59 53 42 35 30 29 40 53 59 60
123 121 116 109 101 109 118 121 114 110 111 107 99 87 65 50 46 55 65 72 80 84 85 84 79 74 69 63 59 59 60 63 66 63 54 37 25 23 33 43 48 54 58
129 127 123 119 110 103 105 114 118 119 120 118 115 107 88 63 52 54 61 71 74 78 77 73 71 68 65 60 54 51 54 59 69 65 51 38 38 45 45 40 44 44 54
134 132 128 125 125 117 103 90 110 109 136 141 140 137 130 114 84 101 102 88 89 91 89 72 64 60 59 56 52 47 46 51 55 53 58 56 49 50 44 35 42 49 57
140 140 139 135 130 127 119 92 61 77 91 106 119 127 107 117 121 105 94 92 95 100 91 83 76 73 70 65 62 52 45 44 46 56 60 58 56 54 51 44 48 53 55
145 145 142 141 140 140 137 134 119 71 70 81 98 112 114 117 113 106 98 91 89 97 90 92 88 83 75 73 68 61 51 41 45 60 62 56 55 55 56 48 43 43 41
136 140 141 143 144 143 142 140 137 136 122 78 61 95 112 115 112 105 107 96 79 74 93 105 103 95 89 86 79 66 58 55 55 52 52 50 49 53 49 40 38 38 31
139 141 139 136 135 135 135 133 132 131 130 122 103 79 93 105 96 90 103 102 115 112 113 117 123 125 117 105 84 70 69 61 52 47 44 44 47 53 43 32 27 18 18
140 145 143 140 139 139 139 138 138 137 135 136 141 140 128 111 106 95 97 115 129 140 148 154 163 160 154 147 121 97 76 65 53 42 24 17 27 40 10 347 342 335 325
140 148 146 143 149 152 151 151 151 150 153 160 174 177 164 157 163 160 156 165 177 183 186 194 203 201 190 178 166 155 154 258 236 242 293 316 326 322 310 305 307 307 306
143 147 151 153 153 156 155 155 155 160 169 176 177 169 173 176 181 189 202 210 211 210 206 206 218 223 216 213 210 204 218 245 257 257 262 273 278 283 289 293 297 301 302
146 148 150 152 156 156 156 161 168 175 183 189 188 185 188 198 201 208 218 222 219 220 217 208 214 230 235 233 229 226 235 248 252 247 250 266 276 283 286 285 287 290 290
153 157 159 161 163 169 173 177 181 188 193 195 198 201 204 209 213 217 220 219 222 232 228 220 223 231 240 248 254 253 254 259 256 244 240 252 267 276 278 280 282 283 284
159 163 169 173 177 182 184 184 189 194 197 198 200 203 208 210 213 216 219 218 220 229 238 239 240 243 247 253 260 265 267 267 264 258 249 251 260 264 269 274 277 282 281
164 171 175 177 181 184 186 188 192 194 196 198 198 199 202 206 211 214 217 218 222 230 239 244 245 248 256 264 268 271 273 275 275 266 250 250 258 264 268 269 275 275 279
Height
1551 1552 1552 1552 1553 1553 1553 1553 1552 1552 1552 1552 1552 1552 1552 1552 1552 1552 1552 1552 1553 1553 1554 1554 1554 1555 1555 1555 1555 1555 1555 1555 1555 1555 1555 1555 1555 1554 1554 1553 1552 1551 1550
1551 1551 1552 1552 1552 1552 1552 1552 1552 1552 1552 1552 1551 1551 1551 1551 1551 1551 1551 1551 1551 1551 1551 1552 1552 1552 1552 1552 1552 1552 1552 1552 1552 1552 1552 1552 1552 1552 1551 1550 1549 1549 1548
1550 1551 1551 1552 1552 1552 1552 1552 1552 1552 1551 1551 1551 1551 1550 1550 1550 1549 1549 1549 1549 1549 1550 1550 1550 1550 1549 1549 1549 1548 1549 1549 1549 1549 1549 1549 1549 1549 1548 1548 1547 1547 1546
1549 1550 1550 1551 1551 1552 1552 1552 1552 1552 1551 1551 1550 1550 1550 1550 1549 1549 1549 1548 1548 1548 1548 1548 1548 1548 1547 1547 1546 1546 1546 1547 1547 1547 1547 1547 1547 1546 1546 1546 1545 1545 1545
1548 1549 1550 1550 1551 1552 1552 1552 1552 1551 1551 1551 1551 1550 1550 1549 1549 1549 1548 1548 1547 1547 1547 1547 1547 1547 1546 1545 1545 1545 1545 1544 1544 1544 1544 1544 1544 1544 1544 1544 1543 1543 1543
1548 1549 1549 1550 1550 1551 1551 1551 1551 1551 1551 1551 1550 1550 1550 1549 1549 1549 1548 1547 1547 1546 1546 1546 1546 1546 1545 1545 1544 1544 1544 1543 1543 1543 1543 1543 1542 1543 1543 1542 1542 1542 1541
1547 1548 1548 1549 1550 1550 1551 1551 1551 1551 1551 1550 1550 1550 1550 1549 1549 1548 1548 1547 1546 1546 1546 1545 1545 1545 1545 1545 1544 1543 1543 1543 1543 1542 1542 1542 1542 1542 1541 1541 1541 1540 1540
1545 1547 1548 1548 1549 1550 1550 1550 1551 1551 1551 1550 1550 1550 1550 1549 1549 1549 1548 1547 1546 1546 1546 1546 1546 1546 1545 1545 1544 1543 1543 1542 1542 1542 1542 1541 1541 1541 1540 1540 1540 1540 1539
1544 1545 1547 1547 1548 1549 1549 1550 1550 1551 1551 1551 1551 1551 1550 1550 1550 1549 1549 1548 1547 1547 1547 1547 1547 1546 1546 1546 1545 1544 1543 1543 1543 1543 1542 1542 1541 1540 1540 1540 1539 1539 1538
1543 1544 1546 1546 1547 1548 1549 1550 1550 1551 1551 1551 1551 1551 1551 1551 1550 1550 1549 1549 1548 1548 1548 1548 1548 1547 1547 1547 1546 1545 1544 1545 1544 1543 1543 1542 1541 1541 1540 1540 1539 1539 1538
1542 1543 1545 1546 1547 1548 1549 1550 1550 1550 1551 1551 1551 1551 1551 1551 1551 1550 1550 1549 1549 1549 1549 1548 1549 1549 1548 1548 1547 1546 1546 1546 1545 1545 1544 1543 1542 1541 1541 1540 1540 1539 1539
1541 1543 1545 1545 1546 1548 1549 1549 1550 1550 1551 1551 1552 1552 1552 1551 1551 1551 1551 1550 1550 1550 1550 1549 1550 1550 1549 1549 1548 1548 1548 1547 1547 1546 1545 1544 1544 1543 1542 1542 1541 1540 1540
1541 1542 1543 1545 1546 1547 1548 1549 1550 1550 1551 1551 1551 1552 1552 1552 1552 1552 1552 1552 1551 1551 1551 1551 1551 1551 1550 1550 1550 1549 1549 1549 1548 1547 1547 1546 1546 1545 1544 1544 1543 1542 1542
1540 1541 1543 1544 1545 1547 1548 1549 1549 1549 1550 1551 1551 1552 1552 1552 1552 1552 1552 1552 1552 1552 1552 1552 1552 1552 1552 1552 1551 1551 1551 1550 1550 1549 1549 1548 1548 1547 1546 1545 1544 1544 1543
1539 1540 1542 1543 1544 1546 1547 1548 1548 1549 1550 1551 1552 1552 1552 1552 1553 1553 1553 1553 1553 1553 1553 1553 1553 1553 1553 1553 1553 1552 1552 1552 1551 1551 1550 1550 1549 1548 1548 1547 1546 1546 1545
1537 1539 1540 1542 1543 1544 1546 1547 1548 1549 1550 1551 1551 1552 1552 1553 1553 1553 1554 1554 1554 1555 1555 1554 1554 1554 1554 1554 1554 1554 1554 1553 1553 1552 1552 1551 1551 1550 1550 1549 1548 1547 1546
1536 1538 1539 1541 1542 1543 1544 1546 1547 1549 1549 1550 1551 1552 1552 1553 1554 1554 1554 1555 1555 1556 1556 1556 1556 1556 1556 1556 1556 1555 1555 1555 1554 1554 1553 1553 1552 1552 1551 1550 1549 1548 1547
1536 1537 1539 1540 1541 1543 1544 1545 1546 1547 1548 1549 1550 1552 1553 1554 1554 1555 1555 1556 1556 1557 1557 1557 1557 1557 1557 1557 1557 1557 1556 1556 1555 1555 1554 1554 1553 1552 1552 1551 1550 1549 1548
1535 1536 1538 1539 1541 1542 1544 1545 1546 1547 1548 1549 1550 1552 1553 1554 1555 1555 1556 1557 1557 1557 1558 1558 1558 1559 1559 1558 1558 1558 1557 1557 1556 1556 1555 1554 1554 1553 1552 1551 1550 1549 1548
1534 1536 1537 1538 1540 1542 1543 1545 1546 1547 1548 1549 1550 1552 1553 1554 1555 1556 1556 1557 1557 1558 1558 1559 1559 1559 1559 1559 1559 1559 1558 1557 1557 1556 1555 1555 1554 1553 1552 1551 1550 1549 1548
1533 1535 1536 1538 1540 1541 1543 1544 1546 1548 1549 1550 1551 1552 1554 1555 1555 1556 1557 1557 1558 1558 1559 1559 1559 1559 1559 1559 1559 1559 1558 1558 1557 1556 1556 1555 1554 1553 1552 1550 1549 1548 1547
1533 1534 1536 1537 1539 1541 1542 1544 1545 1547 1549 1550 1551 1553 1554 1555 1555 1556 1557 1557 1558 1558 1559 1559 1559 1559 1559 1559 1559 1559 1558 1557 1557 1556 1555 1554 1553 1552 1550 1549 1548 1547 1545
1532 1534 1535 1537 1539 1540 1542 1544 1545 1547 1548 1550 1551 1552 1553 1554 1555 1555 1556 1557 1557 1558 1558 1558 1558 1559 1559 1559 1558 1558 1557 1556 1555 1555 1553 1552 1551 1550 1549 1547 1546 1545 1543
1532 1533 1535 1536 1538 1540 1541 1543 1544 1546 1548 1549 1550 1551 1552 1553 1554 1554 1555 1556 1556 1557 1557 1557 1558 1558 1558 1557 1557 1556 1555 1555 1554 1552 1551 1550 1549 1548 1546 1545 1543 1542 1540
1531 1532 1534 1536 1537 1539 1540 1542 1543 1545 1546 1547 1549 1550 1551 1551 1552 1553 1553 1554 1555 1555 1556 1556 1556 1556 1556 1555 1555 1554 1553 1552 1551 1550 1549 1547 1546 1545 1543 1542 1540 1539 1537
1530 1531 1533 1535 1536 1538 1539 1540 1542 1543 1544 1546 1547 1548 1549 1549 1550 1551 1551 1552 1553 1553 1554 1554 1554 1553 1553 1553 1552 1551 1551 1550 1548 1547 1546 1544 1543 1541 1539 1538 1536 1534 1533